Location: Songkhla
(7.2000°N, 100.6000°E)
Time: 19:57:16
(UTC+07:00)

Hubble Space Telescope - Pass Details

Date: 16 April 2026
Orbit: 473 x 476 km, 28.5° (Epoch: 20 May)

Event Time Altitude Azimuth Distance (km) Brightness Sun altitude
Rises 19:21:51 0° 210° (SSW) 2,509 4.4 -14.4°
Reaches altitude 10° 19:24:47 10° 186° (S) 1,631 3.2 -15.1°
Enters shadow 19:26:32 15° 159° (SSE) 1,361 2.5 -15.5°
